sat.trackr.live / text

‹ back to catalog

STARLINK-33732

NORAD 63575 · 2025-076G

PAYLOAD ACTIVE UNKNOWN

§ Identity

Operator
Country
US
Launch date
2025-04-14
Launch site
AFETR
Launch vehicle
Mass (kg)
RCS (m²)

Purposes: comms

External: N2YO · Heavens-Above · Gunter

§ Orbital elements

Epoch: 2026-05-24T16:49:38.687808Z

Period
94.26 min
Inclination
43.0011°
Eccentricity
0.0001790
Mean motion
15.27608807 rev/d
Perigee alt
481.7 km
Apogee alt
484.2 km
Semi-major
6,861.1 km
B*
6.1065e-4
RAAN
252.5790°
Arg perigee
276.4936°
Mean anomaly
83.5711°
Rev number
6,345

§ Raw data

STARLINK-337321 63575U 25076G   26144.70114222  .00016594  00000+0  61065-3 0  99972 63575  43.0011 252.5790 0001790 276.4936  83.5711 15.27608807 63458

JSON: /api/v1/satellites/63575 · /tle

For live sub-satellite position, see the globe view (requires WebGL).

§ Visibility from observer

Set your observer location to see the next 7 days of passes ≥ 10°. The values pass through the URL so the page stays shareable.

No JS? Fill the form by hand. The geolocation button needs JavaScript.